Flag for Germany Weather past 2 weeks in Bad Vilbel, Hesse, Germany

Now
78 °F

Passing clouds.


Feels Like: 80 °F
Forecast: 64 / 89 °F
Wind: 3 mph from Southwest

Location: Frankfurt / M-Flughafen

Current Time: Aug 29, 2015 at 2:40:49 PM

Latest Report: Aug 29, 2015 at 2:00 PM


Visibility: 25 mi

Pressure: 30.17 "Hg

Humidity: 63%

Dew point: 65 °F

Location of Bad VilbelLocation

Historic Weather in Bad Vilbel — Graph

°F

Bad Vilbel temperature yesterday

Maximum temperature yesterday: 68 °F (at 6:00 PM)
Minimum temperature yesterday: 59 °F (at 7:00 AM)
Average temperature yesterday: 62 °F

Past Weeks' High & Low Weather Summary

 TemperatureHumidityPressure
High84 °F (Aug 27, 3:00 PM)100% (Aug 29, 6:00 AM)30.29 "Hg (Aug 29, 6:00 AM)
Low50 °F (Aug 19, 6:00 AM)22% (Aug 22, 4:00 PM)29.66 "Hg (Aug 23, 7:00 PM)
Average66 °F70%29.98 "Hg
* Reported Aug 14 1:00 PM — Aug 29 1:00 PM, Bad Vilbel, Weather by CustomWeather, © 2015

Note: Actual official high and low records may vary slightly from our data, if they occured in-between our weather recording intervals... More about our weather records

Advertising

Bad Vilbel weather history for previous 24 hours

 ConditionsComfort  
Time TempWeatherWind HumidityBarometerVisibility
1:00 PM
Sat, Aug 29
75 °FScattered clouds.2 mph66%30.18 "Hg22 mi
12:00 PM72 °FScattered clouds.1 mph76%30.20 "Hg22 mi
10:00 AM62 °FPartly sunny.3 mph97%30.21 "Hg7 mi
9:00 AM61 °FLow clouds.3 mph99%30.22 "Hg6 mi
8:00 AM60 °FFog.3 mph100%30.21 "Hg2 mi
7:00 AM59 °FFog.5 mph100%30.20 "Hg2 mi
6:00 AM59 °FFog.3 mph100%30.21 "Hg1 mi
4:00 AM58 °FFog.2 mph95%30.20 "Hg6 mi
3:00 AM58 °FFog.1 mph98%30.21 "Hg17 mi
2:00 AM56 °FFog.1 mph98%30.20 "Hg17 mi
1:00 AM58 °FFog.1 mph98%30.20 "Hg17 mi
12:00 AM58 °FFog.1 mph98%30.19 "Hg17 mi
11:00 PM
Fri, Aug 28
60 °FFog.1 mph97%30.18 "Hg19 mi
10:00 PM61 °FFog.1 mph99%30.16 "Hg22 mi
9:00 PM63 °FFog.2 mph96%30.14 "Hg22 mi
8:00 PM65 °FScattered clouds.2 mph91%30.12 "Hg28 mi
7:00 PM67 °FPartly sunny.5 mph88%30.12 "Hg28 mi
6:00 PM68 °FOvercast.3 mph81%30.11 "Hg28 mi
4:00 PM66 °FLow clouds.1 mph84%30.10 "Hg17 mi
3:00 PM66 °FLow clouds.2 mph86%30.09 "Hg12 mi
2:00 PM63 °FLow clouds.N/A93%30.09 "Hg6 mi
Weather by CustomWeather, © 2015

See weather overviewHow to use our weather pages